Location: Days
(41.3591°N, 106.7339°W)
Time: 19:46:03
(UTC+00:00)

RS-15 - Pass Details

Date: 01 July 2022
Orbit: 1881 x 2163 km, 64.8° (Epoch: 15 August)

Event Time Altitude Azimuth Distance (km) Brightness Sun altitude
Rises 08:18:40 0° 323° (NW) 5,695 11.0 -23.7°
Reaches altitude 10° 08:22:26 10° 317° (NW) 4,678 10.3 -23.4°
Maximum altitude 08:33:20 40° 254° (WSW) 2,843 8.6 -22.8°
Enters shadow 08:37:51 31° 214° (SW) 3,202 8.6 -22.5°
